timestamp,wind_dir_avg,wind_spd_max_dir,wind_spd_avg,wind_spd_gust,battery_voltage,lat,long
2019-02-21 00:00:00+00:00,332.0,328.0,11.02,12.49,,47.59359,-54.27349
2019-02-21 00:10:00+00:00,332.0,332.0,13.02,16.8,,47.59359,-54.27349
2019-02-21 00:20:00+00:00,332.0,340.0,11.49,14.19,,47.59359,-54.27349
2019-02-21 00:30:00+00:00,337.0,333.0,10.61,13.88,,47.59359,-54.27349
2019-02-21 00:40:00+00:00,337.0,327.0,10.62,12.18,,47.59359,-54.27349
2019-02-21 00:50:00+00:00,348.0,344.0,10.94,14.28,,47.59359,-54.27349
2019-02-21 01:00:00+00:00,342.0,347.0,9.88,11.59,,47.59359,-54.27349
2019-02-21 01:10:00+00:00,332.0,325.0,9.9,12.47,,47.59359,-54.27349
2019-02-21 01:20:00+00:00,345.0,344.0,9.01,11.29,,47.59359,-54.27349
2019-02-21 01:30:00+00:00,350.0,347.0,8.88,10.52,,47.59359,-54.27349
2019-02-21 01:40:00+00:00,350.0,340.0,9.46,12.11,,47.59359,-54.27349
2019-02-21 01:50:00+00:00,6.0,344.0,9.25,11.4,,47.59359,-54.27349
2019-02-21 02:00:00+00:00,356.0,352.0,9.42,11.39,,47.59359,-54.27349
2019-02-21 02:10:00+00:00,353.0,350.0,8.74,10.82,,47.59359,-54.27349
2019-02-21 02:20:00+00:00,353.0,356.0,8.84,11.19,,47.59359,-54.27349
2019-02-21 02:30:00+00:00,352.0,0.0,8.1,10.46,,47.59359,-54.27349
2019-02-21 02:40:00+00:00,355.0,354.0,7.1,10.54,,47.59359,-54.27349
2019-02-21 02:50:00+00:00,2.0,1.0,8.67,11.45,,47.59359,-54.27349
2019-02-21 03:00:00+00:00,349.0,341.0,8.63,10.14,,47.59359,-54.27349
2019-02-21 03:10:00+00:00,2.0,9.0,10.26,11.81,,47.59359,-54.27349
2019-02-21 03:20:00+00:00,349.0,345.0,10.45,11.78,,47.59359,-54.27349
2019-02-21 03:30:00+00:00,348.0,352.0,6.68,9.21,,47.59359,-54.27349
2019-02-21 03:40:00+00:00,336.0,338.0,8.29,10.88,,47.59359,-54.27349
2019-02-21 03:50:00+00:00,342.0,339.0,8.44,10.97,,47.59359,-54.27349
2019-02-21 04:00:00+00:00,351.0,356.0,9.8,11.73,,47.59359,-54.27349
2019-02-21 04:10:00+00:00,346.0,343.0,8.83,10.57,,47.59359,-54.27349
2019-02-21 04:20:00+00:00,331.0,315.0,9.33,13.0,,47.59359,-54.27349
2019-02-21 04:30:00+00:00,343.0,333.0,10.6,12.35,,47.59359,-54.27349
2019-02-21 04:40:00+00:00,327.0,319.0,10.06,12.49,,47.59359,-54.27349
2019-02-21 04:50:00+00:00,318.0,315.0,9.77,12.47,,47.59359,-54.27349
2019-02-21 05:00:00+00:00,317.0,301.0,8.11,9.97,,47.59359,-54.27349
2019-02-21 05:10:00+00:00,335.0,335.0,9.76,11.9,,47.59359,-54.27349
2019-02-21 05:20:00+00:00,331.0,332.0,9.74,11.21,,47.59359,-54.27349
2019-02-21 05:30:00+00:00,338.0,337.0,10.55,12.24,,47.59359,-54.27349
2019-02-21 05:40:00+00:00,317.0,314.0,7.77,9.52,,47.59359,-54.27349
2019-02-21 05:50:00+00:00,316.0,308.0,6.75,8.94,,47.59359,-54.27349
2019-02-21 06:00:00+00:00,318.0,325.0,6.03,7.34,,47.59359,-54.27349
2019-02-21 06:10:00+00:00,352.0,354.0,9.37,10.57,,47.59359,-54.27349
2019-02-21 06:20:00+00:00,335.0,335.0,7.24,9.15,,47.59359,-54.27349
2019-02-21 06:30:00+00:00,336.0,346.0,6.63,9.63,,47.59359,-54.27349
2019-02-21 06:40:00+00:00,352.0,356.0,8.48,10.96,,47.59359,-54.27349
2019-02-21 06:50:00+00:00,333.0,338.0,8.31,9.9,,47.59359,-54.27349
2019-02-21 07:00:00+00:00,335.0,334.0,8.0,10.87,,47.59359,-54.27349
2019-02-21 07:10:00+00:00,330.0,334.0,7.62,9.04,,47.59359,-54.27349
2019-02-21 07:20:00+00:00,328.0,323.0,8.99,11.7,,47.59359,-54.27349
2019-02-21 07:30:00+00:00,341.0,334.0,8.49,11.65,,47.59359,-54.27349
2019-02-21 07:40:00+00:00,338.0,331.0,8.22,9.26,,47.59359,-54.27349
2019-02-21 07:50:00+00:00,331.0,333.0,6.45,9.07,,47.59359,-54.27349
2019-02-21 08:00:00+00:00,336.0,342.0,7.32,8.83,,47.59359,-54.27349
2019-02-21 08:10:00+00:00,318.0,325.0,5.44,8.2,,47.59359,-54.27349
2019-02-21 08:20:00+00:00,326.0,339.0,4.41,6.46,,47.59359,-54.27349
2019-02-21 08:30:00+00:00,305.0,301.0,4.56,6.48,,47.59359,-54.27349
2019-02-21 08:40:00+00:00,335.0,330.0,5.63,9.23,,47.59359,-54.27349
2019-02-21 08:50:00+00:00,344.0,357.0,6.71,8.97,,47.59359,-54.27349
2019-02-21 09:00:00+00:00,321.0,323.0,6.26,10.01,,47.59359,-54.27349
2019-02-21 09:10:00+00:00,335.0,332.0,9.73,11.3,,47.59359,-54.27349
2019-02-21 09:20:00+00:00,321.0,317.0,9.3,10.91,,47.59359,-54.27349
2019-02-21 09:30:00+00:00,329.0,335.0,8.15,10.16,,47.59359,-54.27349
2019-02-21 09:40:00+00:00,335.0,339.0,7.85,9.23,,47.59359,-54.27349
2019-02-21 09:50:00+00:00,330.0,341.0,7.68,9.31,,47.59359,-54.27349
2019-02-21 10:00:00+00:00,322.0,325.0,6.83,8.0,,47.59359,-54.27349
2019-02-21 10:10:00+00:00,322.0,327.0,7.49,9.86,,47.59359,-54.27349
2019-02-21 10:20:00+00:00,330.0,326.0,6.19,8.02,,47.59359,-54.27349
2019-02-21 10:30:00+00:00,308.0,305.0,6.86,9.27,,47.59359,-54.27349
2019-02-21 10:40:00+00:00,323.0,323.0,5.45,7.28,,47.59359,-54.27349
2019-02-21 10:50:00+00:00,302.0,305.0,6.56,7.83,,47.59359,-54.27349
2019-02-21 11:00:00+00:00,305.0,300.0,5.65,7.23,,47.59359,-54.27349
2019-02-21 11:10:00+00:00,314.0,320.0,6.22,7.34,,47.59359,-54.27349
2019-02-21 11:20:00+00:00,296.0,304.0,5.07,6.18,,47.59359,-54.27349
2019-02-21 11:30:00+00:00,292.0,285.0,8.43,10.93,,47.59359,-54.27349
2019-02-21 11:40:00+00:00,317.0,308.0,5.92,7.27,,47.59359,-54.27349
2019-02-21 11:50:00+00:00,313.0,305.0,5.68,8.61,,47.59359,-54.27349
2019-02-21 12:00:00+00:00,312.0,293.0,6.93,10.0,,47.59359,-54.27349
2019-02-21 12:10:00+00:00,324.0,306.0,6.8,9.45,,47.59359,-54.27349
2019-02-21 12:20:00+00:00,330.0,338.0,6.45,8.44,,47.59359,-54.27349
2019-02-21 12:30:00+00:00,320.0,308.0,5.92,7.98,,47.59359,-54.27349
2019-02-21 12:40:00+00:00,323.0,307.0,6.11,9.11,,47.59359,-54.27349
2019-02-21 12:50:00+00:00,327.0,326.0,4.97,6.57,,47.59359,-54.27349
2019-02-21 13:00:00+00:00,325.0,324.0,6.61,7.53,,47.59359,-54.27349
2019-02-21 13:10:00+00:00,324.0,327.0,7.42,8.79,,47.59359,-54.27349
2019-02-21 13:20:00+00:00,326.0,326.0,7.7,8.86,,47.59359,-54.27349
2019-02-21 13:30:00+00:00,318.0,318.0,6.23,8.7,,47.59359,-54.27349
2019-02-21 13:40:00+00:00,329.0,326.0,7.35,8.74,,47.59359,-54.27349
2019-02-21 13:50:00+00:00,328.0,324.0,7.83,9.3,,47.59359,-54.27349
2019-02-21 14:00:00+00:00,329.0,322.0,7.9,9.23,,47.59359,-54.27349
2019-02-21 14:10:00+00:00,324.0,334.0,6.79,8.2,,47.59359,-54.27349
2019-02-21 14:20:00+00:00,326.0,321.0,8.1,9.32,,47.59359,-54.27349
2019-02-21 14:30:00+00:00,315.0,310.0,6.71,8.83,,47.59359,-54.27349
2019-02-21 14:40:00+00:00,321.0,316.0,7.5,9.52,,47.59359,-54.27349
2019-02-21 14:50:00+00:00,320.0,313.0,8.4,9.46,,47.59359,-54.27349
2019-02-21 15:00:00+00:00,321.0,321.0,8.37,9.58,,47.59359,-54.27349
2019-02-21 15:10:00+00:00,320.0,320.0,6.94,9.17,,47.59359,-54.27349
2019-02-21 15:20:00+00:00,316.0,321.0,7.54,9.31,,47.59359,-54.27349
2019-02-21 15:30:00+00:00,305.0,318.0,6.49,8.24,,47.59359,-54.27349
2019-02-21 15:40:00+00:00,320.0,313.0,7.38,9.54,,47.59359,-54.27349
2019-02-21 15:50:00+00:00,327.0,326.0,7.73,9.61,,47.59359,-54.27349
2019-02-21 16:00:00+00:00,322.0,318.0,6.96,8.63,,47.59359,-54.27349
2019-02-21 16:10:00+00:00,317.0,326.0,7.89,9.58,,47.59359,-54.27349
2019-02-21 16:20:00+00:00,327.0,322.0,8.55,9.81,,47.59359,-54.27349
2019-02-21 16:30:00+00:00,319.0,326.0,7.04,8.85,,47.59359,-54.27349
2019-02-21 16:40:00+00:00,320.0,326.0,6.91,9.47,,47.59359,-54.27349
2019-02-21 16:50:00+00:00,325.0,339.0,7.68,11.19,,47.59359,-54.27349
2019-02-21 17:00:00+00:00,318.0,320.0,6.11,7.64,,47.59359,-54.27349
2019-02-21 17:10:00+00:00,322.0,326.0,7.6,10.39,,47.59359,-54.27349
2019-02-21 17:20:00+00:00,328.0,327.0,8.57,10.29,,47.59359,-54.27349
2019-02-21 17:30:00+00:00,326.0,319.0,9.12,10.84,,47.59359,-54.27349
2019-02-21 17:40:00+00:00,330.0,328.0,10.21,12.35,,47.59359,-54.27349
2019-02-21 17:50:00+00:00,324.0,312.0,10.42,12.97,,47.59359,-54.27349
2019-02-21 18:00:00+00:00,331.0,318.0,8.37,10.13,,47.59359,-54.27349
2019-02-21 18:10:00+00:00,329.0,326.0,9.04,11.14,,47.59359,-54.27349
2019-02-21 18:20:00+00:00,330.0,330.0,7.03,9.84,,47.59359,-54.27349
2019-02-21 18:30:00+00:00,325.0,324.0,7.26,9.02,,47.59359,-54.27349
2019-02-21 18:40:00+00:00,323.0,323.0,6.1,8.32,,47.59359,-54.27349
2019-02-21 18:50:00+00:00,307.0,313.0,3.72,4.83,,47.59359,-54.27349
2019-02-21 19:00:00+00:00,322.0,332.0,6.16,7.76,,47.59359,-54.27349
2019-02-21 19:10:00+00:00,318.0,311.0,4.77,6.54,,47.59359,-54.27349
2019-02-21 19:20:00+00:00,324.0,320.0,6.41,7.65,,47.59359,-54.27349
2019-02-21 19:30:00+00:00,330.0,333.0,7.02,8.57,,47.59359,-54.27349
2019-02-21 19:40:00+00:00,320.0,322.0,4.21,5.24,,47.59359,-54.27349
2019-02-21 19:50:00+00:00,292.0,289.0,3.39,4.99,,47.59359,-54.27349
2019-02-21 20:00:00+00:00,325.0,325.0,7.32,8.52,,47.59359,-54.27349
2019-02-21 20:10:00+00:00,322.0,318.0,5.85,7.65,,47.59359,-54.27349
2019-02-21 20:20:00+00:00,324.0,323.0,5.83,6.81,,47.59359,-54.27349
2019-02-21 20:30:00+00:00,324.0,318.0,6.49,7.62,,47.59359,-54.27349
2019-02-21 20:40:00+00:00,323.0,317.0,4.41,6.43,,47.59359,-54.27349
2019-02-21 20:50:00+00:00,321.0,323.0,5.73,6.48,,47.59359,-54.27349
2019-02-21 21:00:00+00:00,304.0,295.0,2.71,4.38,,47.59359,-54.27349
2019-02-21 21:10:00+00:00,305.0,309.0,2.88,4.13,,47.59359,-54.27349
2019-02-21 21:20:00+00:00,307.0,306.0,4.26,5.63,,47.59359,-54.27349
2019-02-21 21:30:00+00:00,309.0,313.0,3.8,6.26,,47.59359,-54.27349
2019-02-21 21:40:00+00:00,317.0,313.0,5.06,6.42,,47.59359,-54.27349
2019-02-21 21:50:00+00:00,327.0,314.0,4.31,5.2,,47.59359,-54.27349
2019-02-21 22:00:00+00:00,303.0,312.0,4.43,5.47,,47.59359,-54.27349
2019-02-21 22:10:00+00:00,324.0,314.0,4.88,6.54,,47.59359,-54.27349
2019-02-21 22:20:00+00:00,304.0,307.0,4.07,5.58,,47.59359,-54.27349
2019-02-21 22:30:00+00:00,326.0,314.0,5.02,6.37,,47.59359,-54.27349
2019-02-21 22:40:00+00:00,319.0,310.0,4.42,5.8,,47.59359,-54.27349
2019-02-21 22:50:00+00:00,313.0,307.0,3.16,4.72,,47.59359,-54.27349
2019-02-21 23:00:00+00:00,319.0,312.0,5.63,6.46,,47.59359,-54.27349
2019-02-21 23:10:00+00:00,306.0,309.0,4.47,5.34,,47.59359,-54.27349
2019-02-21 23:20:00+00:00,315.0,306.0,4.48,5.45,,47.59359,-54.27349
2019-02-21 23:30:00+00:00,318.0,315.0,4.44,6.03,,47.59359,-54.27349
2019-02-21 23:40:00+00:00,325.0,322.0,4.39,5.6,,47.59359,-54.27349
2019-02-21 23:50:00+00:00,324.0,325.0,4.7,6.21,,47.59359,-54.27349
